STARLINK-32432, 61257

Orbit data source: Space-Track

STARLINK-32432, 61257 is a payload satellite owned by SpaceX/Seattle (US) in LEO that was launched on Wed, 25 Sep 2024 UTC via an FALCON 9 launch vehicle from the Air Force Western Test Range (AFWTR). Payload-class satellites include a variety of spacecraft equipped with specific instruments for various scientific and technological missions. These include communications satellites like Starlink; space stations such as the ISS; scientific satellites like the Hubble; Earth observation satellites from companies like Planet Labs, Umbra, and HawkEye 360; GPS; miniature CubeSats for education and research; and military/defense satellites.

Loading next visibility...
Identifier
61257, 2024-175Q
Orbit
LEO
Last TLE update
21 hours ago
Origin
Manufacturer
SpaceX/Seattle
Mission
Operational Commercial Communications
Bus & Motor
STARLINK V2M, Unknown motor
Mass
730 kg wet, ~700 kg dry
Launch date (UTC)
2024-09-25 (7 months ago)
Launch vehicle
FALCON 9
Launch site
Air Force Western Test Range (AFWTR)
Object type
Payload
Rocket body
Debris
Shape & HBR
Box + 2 Pan, 29 m
Radar Cross Section
33.884 m², Large (>1 m²)

Expand to show TLE details & history

TLE from 21 hours ago
0 STARLINK-32432
1 61257U 24175Q   25128.41199859  .00000391  00000-0  25325-4 0  9998
2 61257  53.1587 172.0660 0000916  80.6443 279.4661 15.30191549 34713
Epoch: 2025-05-08T09:53Z
Definitive object data (Epoch: 2025-05-08T09:53:16.678Z)
Latitude
-0.00003°
Longitude
157.26362°
Altitude
476.037 km
Speed
7.629 km/s
True Right ascension
11h 28m 15s
True Declination
0° 00' 00"
Sunlit
Object was in full shadow at TLE epoch
Visualization TLE readout
Latitude
36.48007°
Longitude
-173.29109°
Altitude
477.592 km
Speed
7.632 km/s
Apparent Right ascension
09h 24m 50s
Apparent Declination
0° 31' 22"
Sunlit
Object is in full shadow
Visualization observer readout
Local Sidereal Time
14:37:16
Azimuth
261.901° W
Elevation
8.756°
Doppler factor
1
Orbital elements
Apogee altitude
476.125 km
Perigee altitude
474.869 km
Semi-major axis
6,853.634 km
Eccentricity
0.0000916
Inclination
53.1587°
RAAN
172.066°
Arg. of periapsis
80.6443°
True anomaly
279.45575°
Mean anomaly
279.4661°
Eccentric anomaly
279.46092°
Mean motion
3.82527 °/min
BSTAR
0.000025325
Orbital period
94.11 mins
Loading maneuver chart data...
Loading SW <> Apogee altitude chart data...
Loading historical data...
Loading historical data...
Loading historical data...
Loading historical data...
Loading historical data...
Loading historical data...
Loading historical data...

STARLINK-32432 Visibility forecast

Observer location: undefined°, undefined°

Span
Click to sort rows by Start time (UTC) header in descending order
Start Az.
Max El. time (UTC)
Max El. Az.
Max El.
End time (UTC)
End Az.
5 mins2025-05-09 06:29:25.856Z269.409° W2025-05-09 06:32:25.856Z342.856° N27.601°2025-05-09 06:34:25.856Z26.103° NE
4 mins2025-05-09 11:27:25.856Z346.705° N2025-05-09 11:29:25.856Z46.78° ENE27.034°2025-05-09 11:31:25.856Z88.264° E
4 mins2025-05-09 13:05:25.856Z270.404° WNW2025-05-09 13:06:25.856Z243.32° WSW27.698°2025-05-09 13:09:25.856Z168.804° S
4 mins2025-05-10 04:23:25.856Z165.489° S2025-05-10 04:24:25.856Z139.607° SSE24.377°2025-05-10 04:27:25.856Z75.608° E
5 mins2025-05-10 06:00:25.856Z270.569° WNW2025-05-10 06:02:25.856Z323.959° NNW30.661°2025-05-10 06:05:25.856Z32.954° NE
|